Location: Narrabri
(30.3170°S, 149.7830°E)
Time: 04:03:41
(UTC+11:00)

Envisat - Pass Details

Date: 15 October 2017
Orbit: 764 x 766 km, 98.2° (Epoch: 13 December)

Event Time Altitude Azimuth Distance (km) Brightness Sun altitude
Rises 20:53:14 0° 157° (SSE) 3,258 6.3 -21.8°
Reaches altitude 10° 20:55:45 10° 147° (SSE) 2,324 5.4 -22.3°
Enters shadow 20:57:43 21° 133° (SE) 1,680 4.5 -22.7°
